Location: Sternwarte ZA, Rosenfeld-Brittheim
(48.2889°N, 8.6789°E)
Time: 19:41:19
(UTC+02:00)

ISS - Pass Details

Date: 19 May 2018
Orbit: 402 x 407 km, 51.6° (Epoch: 25 May)

Event Time Altitude Azimuth Distance (km) Brightness Sun altitude
Exits shadow 02:30:10 15° 290° (WNW) 1,176 -1.5 -20.3°
Maximum altitude 02:32:34 44° 360° (N) 573 -2.7 -20.2°
Drops below altitude 10° 02:35:43 10° 74° (ENE) 1,458 -0.6 -20.0°
Sets 02:37:51 0° 81° (E) 2,318 0.4 -19.9°
